CW5557 Weather Reports


Display with metric or nautical units.
time (UTC)temp
F
wind
direction
speed
MPH
gust
MPH
rain 1hr
in
rain 24hr
in
rain mn
in
humidity
%
barometer
mb
20171124231711 66 65 5.0 9.0 0.00 0.00 0.00 93 1015.9
20171124230710 66 88 4.0 10.0 0.00 0.00 0.00 93 1015.2
20171124224710 66 73 4.0 9.0 0.00 0.00 0.00 93 1015.2
20171124223710 67 83 5.0 9.0 0.00 0.00 0.00 93 1015.2
20171124221709 67 63 6.0 10.0 0.00 0.00 0.00 92 1015.0
20171124220712 67 59 3.0 9.0 0.00 0.00 0.00 92 1014.8
20171124214710 68 105 2.0 5.0 0.00 0.00 0.00 90 1014.8
20171124213710 68 134 1.0 3.0 0.00 0.00 0.00 89 1014.8
20171124211710 69 145 1.0 3.0 0.00 0.00 0.00 87 1014.8
20171124210710 69 140 2.0 5.0 0.00 0.00 0.00 86 1014.8
20171124204710 70 138 0.0 3.0 0.00 0.00 0.00 83 1014.7
20171124203709 70 141 1.0 6.0 0.00 0.00 0.00 83 1014.6
20171124201709 69 151 1.0 3.0 0.00 0.00 0.00 84 1014.7
20171124200710 69 95 2.0 5.0 0.00 0.00 0.00 84 1014.7
20171124193710 70 166 2.0 5.0 0.00 0.00 0.00 82 1015.2
20171124191709 70 132 1.0 3.0 0.00 0.00 0.00 82 1015.2
20171124190714 70 127 1.0 5.0 0.00 0.00 0.00 82 1015.2
20171124184710 70 86 3.0 7.0 0.00 0.00 0.00 83 1015.2
20171124183711 70 104 2.0 7.0 0.00 0.00 0.00 81 1016.2
20171124181710 70 130 3.0 9.0 0.00 0.00 0.00 82 1016.2
20171124174710 71 130 2.0 10.0 0.00 0.00 0.00 82 1016.2
20171124173710 70 129 3.0 7.0 0.00 0.00 0.00 81 1016.2
20171124171711 72 144 3.0 10.0 0.00 0.00 0.00 82 1016.6
20171124170711 75 143 2.0 6.0 0.00 0.00 0.00 78 1016.6
20171124164711 73 163 1.0 9.0 0.00 0.00 0.00 81 1016.6
20171124163710 73 193 3.0 10.0 0.00 0.00 0.00 79 1016.9
20171124153710 71 203 2.0 7.0 0.00 0.00 0.00 86 1018.1
20171124151712 70 171 0.0 6.0 0.00 0.00 0.00 86 1018.1
20171124150710 69 248 1.0 6.0 0.00 0.00 0.00 90 1018.1
20171124144710 68 165 0.0 3.0 0.00 0.00 0.00 88 1018.1
20171124143709 69 209 1.0 9.0 0.00 0.00 0.00 88 1018.1
20171124141710 69 121 1.0 6.0 0.00 0.00 0.00 85 1018.0
20171124140709 68 143 2.0 6.0 0.00 0.00 0.00 86 1017.9
20171124134710 65 150 2.0 5.0 0.00 0.00 0.00 91 1018.0
20171124133710 65 127 1.0 5.0 0.00 0.00 0.00 92 1018.0
20171124131710 64 116 2.0 5.0 0.00 0.00 0.00 94 1017.6
20171124130711 64 96 2.0 6.0 0.00 0.00 0.00 94 1017.6
20171124124710 63 63 3.0 5.0 0.00 0.00 0.00 94 1017.1
20171124123710 63 89 3.0 6.0 0.00 0.00 0.00 94 1017.1
20171124121710 63 64 4.0 7.0 0.00 0.00 0.00 94 1017.1
20171124120710 63 98 3.0 7.0 0.00 0.00 0.00 94 1016.6
20171124114711 62 42 5.0 7.0 0.00 0.00 0.00 94 1016.6
20171124113709 62 64 6.0 9.0 0.00 0.00 0.00 94 1016.4
20171124110709 61 65 1.0 6.0 0.00 0.00 0.00 94 1015.4
20171124104710 61 53 2.0 5.0 0.00 0.00 0.00 94 1015.4
20171124103719 61 52 5.0 6.0 0.00 0.00 0.00 93 1015.4
20171124101710 61 55 5.0 7.0 0.00 0.00 0.00 93 1015.4
20171124100710 61 54 5.0 8.0 0.00 0.00 0.00 94 1014.8
20171124094710 61 60 5.0 7.0 0.00 0.00 0.00 93 1014.8
20171124093710 61 71 5.0 6.0 0.00 0.00 0.00 93 1014.8
20171124081710 61 70 2.0 3.0 0.00 0.00 0.00 93 1014.7
20171124080710 61 63 2.0 3.0 0.00 0.00 0.00 94 1014.8
20171124074712 61 76 1.0 3.0 0.00 0.00 0.00 94 1014.8
20171124073710 61 77 1.0 3.0 0.00 0.00 0.00 94 1014.8
20171124071710 61 83 1.0 3.0 0.00 0.00 0.00 94 1014.9
20171124070710 61 105 1.0 3.0 0.00 0.00 0.00 94 1014.9
20171124064711 61 110 1.0 3.0 0.00 0.00 0.00 94 1014.9
20171124063709 61 40 2.0 3.0 0.00 0.00 0.00 94 1014.9
20171124061709 62 40 1.0 3.0 0.00 0.00 0.00 94 1015.3
20171124054711 63 57 3.0 6.0 0.00 0.00 0.00 94 1015.9
20171124053710 63 40 2.0 3.0 0.00 0.00 0.00 94 1015.9